Overview Statistics Trail Chart Weather Telemetry Raw packets
 

This is the latest recevied weather packets stored in our database for station/object K5BOU. If no packets are shown the sender has not sent any weather packets the latest 10 day(s).

<< 6 7 8 9 10 11 12 >>
Time Temp. Humidity Pressure Rain* Wind** Luminosity Snow
1788617850 30.56° C 91% 1012.7 hPa 0 mm - 272 W/m² -
1788617546 30° C 93% 1012.6 hPa 0 mm - 98 W/m² -
1788617241 30° C 93% 1012.7 hPa 0 mm - 115 W/m² -
1788616935 30° C 93% 1012.5 hPa 0 mm - 105 W/m² -
1788616629 29.44° C 94% 1012.4 hPa 0 mm - 63 W/m² -
1788616326 28.89° C 97% 1012.6 hPa 0 mm - 51 W/m² -
1788616025 28.33° C 99% 1012.4 hPa 0 mm - 51 W/m² -
1788615724 27.78° C 99% 1012.6 hPa 0 mm - 46 W/m² -
1788615419 27.78° C 99% 1012.5 hPa 0 mm - 45 W/m² -
1788615114 27.22° C 99% 1012.6 hPa 0 mm - 44 W/m² -
1788614813 26.67° C 99% 1012.6 hPa 0 mm - 60 W/m² -
1788614509 26.67° C 99% 1012.7 hPa 0 mm - 42 W/m² -
1788614204 26.67° C 99% 1012.6 hPa 0 mm - 69 W/m² -
1788613898 26.67° C 99% 1012.5 hPa 0 mm - 43 W/m² -
1788613592 26.67° C 99% 1012.7 hPa 0 mm - 45 W/m² -
1788613286 26.11° C 99% 1012.4 hPa 0 mm - 42 W/m² -
1788612981 26.11° C 99% 1012.4 hPa 0 mm - 39 W/m² -
1788612677 25.56° C 99% 1012.4 hPa 0 mm - 35 W/m² -
1788612373 25° C 99% 1012.4 hPa 0 mm - 32 W/m² -
1788612068 24.44° C 99% 1012.2 hPa 0 mm - 26 W/m² -
1788611758 24.44° C 99% 1012.2 hPa 0 mm - 20 W/m² -
1788611455 24.44° C 99% 1012 hPa 0 mm - 17 W/m² -
1788611155 24.44° C 99% 1012.3 hPa 0 mm - 12 W/m² -
1788610855 24.44° C 99% 1012 hPa 0 mm - 9 W/m² -
1788610550 24.44° C 99% 1012.2 hPa 0 mm - 5 W/m² -

* Rain latest hour (hover to see other rain measurements)
** Current wind speed in m/s (hover to see current wind gust speed)